contact:dominique.lefevre@mio.osupytheas.fr, maurice.libes@osupytheas.fr, didier.mallarino@osupytheas.fr
Project:EMSO http://www.emso-fr.org/EMSO-France
Depth: 2436.0 m
Title:EMSO Ligure Ouest : Data MII capteur CSTAR
DateTime,Latitude,Longitude,Instrument_Serial,Reference_Counts,Signal_Counts,Corrected_Signal_raw_counts,Calculated_Beam_c_inverse_meters,Internal_thermistor_counts
DateTime,Latitude,Longitude,Instrument_Serial,Reference_Counts,Signal_Counts,Corrected_Signal_raw_counts,Calculated_Beam_c_inverse_meters,Internal_thermistor_counts
2023-04-09T00:01:44,42.805,6.029,CST-1368DR,4328,4714,11566,01.201,551
2023-04-09T00:04:46,42.805,6.029,CST-1368DR,4328,4715,11570,01.200,551
2023-04-09T00:07:48,42.805,6.029,CST-1368DR,4328,4713,11564,01.202,552
2023-04-09T00:10:49,42.805,6.029,CST-1368DR,4328,4714,11566,01.201,551
2023-04-09T00:13:51,42.805,6.029,CST-1368DR,4328,4713,11564,01.202,551
2023-04-09T00:16:52,42.805,6.029,CST-1368DR,4328,4714,11566,01.201,551
2023-04-09T00:19:54,42.805,6.029,CST-1368DR,4328,4715,11569,01.200,551
2023-04-09T00:22:56,42.805,6.029,CST-1368DR,4328,4714,11566,01.201,551
2023-04-09T00:25:57,42.805,6.029,CST-1368DR,4328,4711,11560,01.203,551
2023-04-09T00:35:06,42.805,6.029,CST-1368DR,4328,4713,11565,01.201,551
2023-04-09T00:38:08,42.805,6.029,CST-1368DR,4328,4711,11559,01.203,551
2023-04-09T00:41:09,42.805,6.029,CST-1368DR,4328,4713,11565,01.201,551
2023-04-09T00:44:11,42.805,6.029,CST-1368DR,4328,4714,11566,01.201,551
2023-04-09T00:47:13,42.805,6.029,CST-1368DR,4328,4715,11568,01.200,551
2023-04-09T00:50:14,42.805,6.029,CST-1368DR,4328,4708,11553,01.205,551
2023-04-09T00:53:16,42.805,6.029,CST-1368DR,4328,4710,11558,01.204,551
2023-04-09T00:56:17,42.805,6.029,CST-1368DR,4328,4710,11556,01.204,551
2023-04-09T00:59:19,42.805,6.029,CST-1368DR,4328,4710,11556,01.204,551
2023-04-09T01:02:21,42.805,6.029,CST-1368DR,4328,4711,11560,01.203,551
2023-04-09T01:05:22,42.805,6.029,CST-1368DR,4328,4712,11562,01.202,551
2023-04-09T01:08:24,42.805,6.029,CST-1368DR,4328,4713,11564,01.202,551
2023-04-09T01:11:25,42.805,6.029,CST-1368DR,4328,4713,11565,01.201,551
2023-04-09T01:14:27,42.805,6.029,CST-1368DR,4328,4711,11560,01.203,552
2023-04-09T01:17:28,42.805,6.029,CST-1368DR,4328,4712,11561,01.203,551
2023-04-09T01:20:30,42.805,6.029,CST-1368DR,4328,4715,11568,01.200,551
2023-04-09T01:23:32,42.805,6.029,CST-1368DR,4328,4713,11565,01.201,551
2023-04-09T01:26:33,42.805,6.029,CST-1368DR,4328,4715,11569,01.200,552
2023-04-09T01:29:35,42.805,6.029,CST-1368DR,4328,4713,11565,01.201,551
2023-04-09T01:32:36,42.805,6.029,CST-1368DR,4328,4716,11570,01.200,551
2023-04-09T01:35:38,42.805,6.029,CST-1368DR,4328,4714,11567,01.201,551
2023-04-09T01:38:39,42.805,6.029,CST-1368DR,4328,4716,11570,01.200,551
2023-04-09T01:41:41,42.805,6.029,CST-1368DR,4328,4716,11570,01.200,551
2023-04-09T01:44:43,42.805,6.029,CST-1368DR,4328,4714,11566,01.201,551
2023-04-09T01:47:44,42.805,6.029,CST-1368DR,4328,4715,11568,01.200,551
2023-04-09T01:50:46,42.805,6.029,CST-1368DR,4328,4712,11562,01.202,551
2023-04-09T01:53:47,42.805,6.029,CST-1368DR,4328,4714,11566,01.201,551
2023-04-09T01:56:49,42.805,6.029,CST-1368DR,4328,4714,11566,01.201,551
2023-04-09T01:59:51,42.805,6.029,CST-1368DR,4328,4711,11559,01.203,551
2023-04-09T02:02:52,42.805,6.029,CST-1368DR,4328,4713,11565,01.201,551
2023-04-09T02:05:54,42.805,6.029,CST-1368DR,4328,4713,11565,01.201,551
2023-04-09T02:08:55,42.805,6.029,CST-1368DR,4328,4715,11568,01.200,551
2023-04-09T02:11:57,42.805,6.029,CST-1368DR,4328,4714,11566,01.201,551
2023-04-09T02:14:58,42.805,6.029,CST-1368DR,4328,4713,11564,01.202,551
2023-04-09T02:18:00,42.805,6.029,CST-1368DR,4328,4709,11554,01.205,551
2023-04-09T02:21:02,42.805,6.029,CST-1368DR,4328,4712,11561,01.203,551
2023-04-09T02:24:03,42.805,6.029,CST-1368DR,4328,4714,11567,01.201,551
2023-04-09T02:27:05,42.805,6.029,CST-1368DR,4328,4714,11567,01.201,551
2023-04-09T02:30:06,42.805,6.029,CST-1368DR,4328,4714,11566,01.201,551
2023-04-09T02:33:08,42.805,6.029,CST-1368DR,4328,4720,11580,01.196,551
2023-04-09T02:36:09,42.805,6.029,CST-1368DR,4328,4717,11573,01.198,551
2023-04-09T02:39:11,42.805,6.029,CST-1368DR,4328,4713,11563,01.202,551
2023-04-09T02:42:13,42.805,6.029,CST-1368DR,4328,4714,11566,01.201,551
2023-04-09T02:45:14,42.805,6.029,CST-1368DR,4328,4714,11566,01.201,551
2023-04-09T02:48:16,42.805,6.029,CST-1368DR,4328,4715,11568,01.200,551
2023-04-09T02:51:17,42.805,6.029,CST-1368DR,4328,4715,11569,01.200,551
2023-04-09T02:54:19,42.805,6.029,CST-1368DR,4328,4715,11570,01.200,551
2023-04-09T02:57:21,42.805,6.029,CST-1368DR,4328,4715,11569,01.200,551
2023-04-09T03:00:22,42.805,6.029,CST-1368DR,4328,4715,11570,01.200,551
2023-04-09T03:03:24,42.805,6.029,CST-1368DR,4328,4715,11570,01.200,551
2023-04-09T03:06:25,42.805,6.029,CST-1368DR,4328,4712,11562,01.202,551
2023-04-09T03:09:27,42.805,6.029,CST-1368DR,4328,4713,11563,01.202,551
2023-04-09T03:12:28,42.805,6.029,CST-1368DR,4328,4713,11565,01.201,551
2023-04-09T03:15:30,42.805,6.029,CST-1368DR,4328,4712,11562,01.202,551
2023-04-09T03:18:32,42.805,6.029,CST-1368DR,4328,4712,11562,01.202,551
2023-04-09T03:21:33,42.805,6.029,CST-1368DR,4328,4713,11564,01.202,552
2023-04-09T03:24:35,42.805,6.029,CST-1368DR,4328,4713,11564,01.202,551
2023-04-09T03:27:36,42.805,6.029,CST-1368DR,4328,4714,11567,01.201,551
2023-04-09T03:30:38,42.805,6.029,CST-1368DR,4328,4709,11555,01.205,551
2023-04-09T03:33:39,42.805,6.029,CST-1368DR,4328,4713,11563,01.202,551
2023-04-09T03:36:41,42.805,6.029,CST-1368DR,4328,4713,11565,01.201,551
2023-04-09T03:39:43,42.805,6.029,CST-1368DR,4328,4712,11562,01.202,551
2023-04-09T03:42:44,42.805,6.029,CST-1368DR,4328,4713,11565,01.201,551
2023-04-09T03:45:46,42.805,6.029,CST-1368DR,4328,4711,11559,01.203,551
2023-04-09T03:48:47,42.805,6.029,CST-1368DR,4328,4713,11563,01.202,551
2023-04-09T03:51:49,42.805,6.029,CST-1368DR,4328,4710,11556,01.204,551
2023-04-09T03:54:51,42.805,6.029,CST-1368DR,4328,4713,11563,01.202,551
2023-04-09T03:57:52,42.805,6.029,CST-1368DR,4328,4716,11570,01.200,552
2023-04-09T04:00:54,42.805,6.029,CST-1368DR,4328,4713,11563,01.202,551
2023-04-09T04:03:55,42.805,6.029,CST-1368DR,4328,4715,11570,01.200,551
2023-04-09T04:06:57,42.805,6.029,CST-1368DR,4328,4717,11574,01.198,551
2023-04-09T04:09:58,42.805,6.029,CST-1368DR,4328,4716,11571,01.199,551
2023-04-09T04:13:00,42.805,6.029,CST-1368DR,4328,4716,11572,01.199,551
2023-04-09T04:16:02,42.805,6.029,CST-1368DR,4328,4716,11572,01.199,551
2023-04-09T04:19:03,42.805,6.029,CST-1368DR,4328,4717,11574,01.198,551
2023-04-09T04:22:05,42.805,6.029,CST-1368DR,4328,4717,11573,01.198,551
2023-04-09T04:25:06,42.805,6.029,CST-1368DR,4328,4715,11569,01.200,551
2023-04-09T04:28:08,42.805,6.029,CST-1368DR,4328,4714,11566,01.201,551
2023-04-09T04:31:10,42.805,6.029,CST-1368DR,4328,4714,11567,01.201,551
2023-04-09T04:34:12,42.805,6.029,CST-1368DR,4328,4715,11570,01.200,551
2023-04-09T04:37:13,42.805,6.029,CST-1368DR,4328,4715,11570,01.200,551
2023-04-09T04:40:15,42.805,6.029,CST-1368DR,4328,4714,11567,01.201,551
2023-04-09T04:43:16,42.805,6.029,CST-1368DR,4328,4714,11566,01.201,551
2023-04-09T04:46:18,42.805,6.029,CST-1368DR,4328,4715,11570,01.200,551
2023-04-09T04:49:20,42.805,6.029,CST-1368DR,4328,4714,11566,01.201,551
2023-04-09T04:52:21,42.805,6.029,CST-1368DR,4328,4709,11555,01.205,551
2023-04-09T04:55:23,42.805,6.029,CST-1368DR,4328,4714,11567,01.201,551
2023-04-09T04:58:24,42.805,6.029,CST-1368DR,4328,4715,11568,01.200,551
2023-04-09T05:01:26,42.805,6.029,CST-1368DR,4328,4715,11568,01.200,551
2023-04-09T05:04:28,42.805,6.029,CST-1368DR,4328,4713,11564,01.202,551
2023-04-09T05:07:29,42.805,6.029,CST-1368DR,4328,4714,11567,01.201,551
2023-04-09T05:10:31,42.805,6.029,CST-1368DR,4328,4716,11570,01.200,551
2023-04-09T05:13:32,42.805,6.029,CST-1368DR,4328,4713,11564,01.202,551
2023-04-09T05:16:34,42.805,6.029,CST-1368DR,4328,4713,11565,01.201,551
2023-04-09T05:19:35,42.805,6.029,CST-1368DR,4328,4715,11568,01.200,551
2023-04-09T05:22:37,42.805,6.029,CST-1368DR,4328,4716,11570,01.200,551
2023-04-09T05:25:39,42.805,6.029,CST-1368DR,4328,4714,11566,01.201,551
2023-04-09T05:28:40,42.805,6.029,CST-1368DR,4328,4715,11569,01.200,551
2023-04-09T05:31:42,42.805,6.029,CST-1368DR,4328,4713,11565,01.201,551
2023-04-09T05:34:43,42.805,6.029,CST-1368DR,4328,4710,11557,01.204,551
2023-04-09T05:37:45,42.805,6.029,CST-1368DR,4328,4713,11565,01.201,551
2023-04-09T05:40:46,42.805,6.029,CST-1368DR,4328,4712,11562,01.202,551
2023-04-09T05:43:48,42.805,6.029,CST-1368DR,4328,4713,11565,01.201,551
2023-04-09T05:46:50,42.805,6.029,CST-1368DR,4328,4711,11559,01.203,551
2023-04-09T05:49:51,42.805,6.029,CST-1368DR,4328,4711,11560,01.203,551
2023-04-09T05:52:53,42.805,6.029,CST-1368DR,4328,4708,11552,01.206,551
2023-04-09T05:55:54,42.805,6.029,CST-1368DR,4328,4711,11560,01.203,551
2023-04-09T05:58:56,42.805,6.029,CST-1368DR,4328,4711,11559,01.203,551
2023-04-09T06:01:58,42.805,6.029,CST-1368DR,4328,4709,11554,01.205,551
2023-04-09T06:04:59,42.805,6.029,CST-1368DR,4328,4708,11553,01.205,551
2023-04-09T06:08:01,42.805,6.029,CST-1368DR,4328,4708,11552,01.206,551
2023-04-09T06:11:02,42.805,6.029,CST-1368DR,4327,4707,11552,01.206,551
2023-04-09T06:14:04,42.805,6.029,CST-1368DR,4328,4707,11549,01.207,551
2023-04-09T06:17:05,42.805,6.029,CST-1368DR,4328,4706,11547,01.207,551
2023-04-09T06:20:07,42.805,6.029,CST-1368DR,4328,4708,11553,01.205,551
2023-04-09T06:23:09,42.805,6.029,CST-1368DR,4327,4707,11551,01.206,551
2023-04-09T06:26:10,42.805,6.029,CST-1368DR,4327,4709,11556,01.204,551
2023-04-09T06:29:12,42.805,6.029,CST-1368DR,4328,4706,11548,01.207,551
2023-04-09T06:32:13,42.805,6.029,CST-1368DR,4328,4708,11553,01.205,551
2023-04-09T06:35:15,42.805,6.029,CST-1368DR,4327,4708,11554,01.205,551
2023-04-09T06:38:16,42.805,6.029,CST-1368DR,4327,4706,11549,01.207,551
2023-04-09T06:41:18,42.805,6.029,CST-1368DR,4327,4709,11556,01.204,551
2023-04-09T06:44:20,42.805,6.029,CST-1368DR,4327,4707,11552,01.206,551
2023-04-09T06:47:21,42.805,6.029,CST-1368DR,4327,4710,11559,01.203,551
2023-04-09T06:50:23,42.805,6.029,CST-1368DR,4327,4709,11556,01.204,551
2023-04-09T06:53:24,42.805,6.029,CST-1368DR,4327,4703,11542,01.209,551
2023-04-09T06:56:26,42.805,6.029,CST-1368DR,4327,4707,11552,01.206,551
2023-04-09T06:59:28,42.805,6.029,CST-1368DR,4327,4709,11557,01.204,551
2023-04-09T07:02:29,42.805,6.029,CST-1368DR,4327,4710,11559,01.203,551
2023-04-09T07:05:31,42.805,6.029,CST-1368DR,4327,4709,11557,01.204,551
2023-04-09T07:08:32,42.805,6.029,CST-1368DR,4327,4709,11557,01.204,551
2023-04-09T07:11:34,42.805,6.029,CST-1368DR,4327,4710,11560,01.203,551
2023-04-09T07:14:35,42.805,6.029,CST-1368DR,4327,4712,11564,01.202,551
2023-04-09T07:17:37,42.805,6.029,CST-1368DR,4327,4709,11558,01.204,551
2023-04-09T07:20:39,42.805,6.029,CST-1368DR,4327,4708,11554,01.205,551
2023-04-09T07:23:40,42.805,6.029,CST-1368DR,4327,4709,11556,01.204,551
2023-04-09T07:26:42,42.805,6.029,CST-1368DR,4327,4710,11560,01.203,551
2023-04-09T07:29:43,42.805,6.029,CST-1368DR,4327,4706,11550,01.206,551
2023-04-09T07:32:45,42.805,6.029,CST-1368DR,4327,4707,11552,01.206,551
2023-04-09T07:35:46,42.805,6.029,CST-1368DR,4327,4707,11552,01.206,551
2023-04-09T07:38:48,42.805,6.029,CST-1368DR,4328,4720,11581,01.196,551
2023-04-09T07:41:50,42.805,6.029,CST-1368DR,4327,4712,11564,01.202,551
2023-04-09T07:44:51,42.805,6.029,CST-1368DR,4327,4715,11572,01.199,551
2023-04-09T07:47:53,42.805,6.029,CST-1368DR,4328,4717,11575,01.198,551
2023-04-09T07:50:54,42.805,6.029,CST-1368DR,4328,4716,11572,01.199,551
2023-04-09T07:53:56,42.805,6.029,CST-1368DR,4328,4719,11578,01.197,551
2023-04-09T07:56:58,42.805,6.029,CST-1368DR,4327,4715,11572,01.199,551
2023-04-09T07:59:59,42.805,6.029,CST-1368DR,4327,4717,11576,01.197,551
2023-04-09T08:03:01,42.805,6.029,CST-1368DR,4327,4720,11584,01.195,551
2023-04-09T08:06:02,42.805,6.029,CST-1368DR,4327,4713,11566,01.201,551
2023-04-09T08:09:04,42.805,6.029,CST-1368DR,4327,4715,11572,01.199,551
2023-04-09T08:12:05,42.805,6.029,CST-1368DR,4327,4713,11567,01.201,551
2023-04-09T08:15:07,42.805,6.029,CST-1368DR,4327,4716,11575,01.198,551
2023-04-09T08:18:09,42.805,6.029,CST-1368DR,4327,4712,11565,01.201,551
2023-04-09T08:21:10,42.805,6.029,CST-1368DR,4327,4713,11567,01.201,551
2023-04-09T08:24:12,42.805,6.029,CST-1368DR,4327,4714,11569,01.200,551
2023-04-09T08:27:13,42.805,6.029,CST-1368DR,4327,4716,11573,01.198,551
2023-04-09T08:30:17,42.805,6.029,CST-1368DR,4328,4719,11578,01.197,551
2023-04-09T08:33:18,42.805,6.029,CST-1368DR,4328,4713,11565,01.201,551
2023-04-09T08:36:20,42.805,6.029,CST-1368DR,4328,4716,11572,01.199,551
2023-04-09T08:39:21,42.805,6.029,CST-1368DR,4328,4712,11562,01.202,551
2023-04-09T08:42:23,42.805,6.029,CST-1368DR,4328,4719,11578,01.197,551
2023-04-09T08:45:25,42.805,6.029,CST-1368DR,4327,4719,11582,01.195,551
2023-04-09T08:48:26,42.805,6.029,CST-1368DR,4327,4711,11563,01.202,551
2023-04-09T08:51:28,42.805,6.029,CST-1368DR,4327,4714,11569,01.200,551
2023-04-09T08:54:29,42.805,6.029,CST-1368DR,4328,4718,11576,01.197,551
2023-04-09T08:57:31,42.805,6.029,CST-1368DR,4327,4716,11573,01.198,551
2023-04-09T09:00:32,42.805,6.029,CST-1368DR,4327,4715,11571,01.199,551
2023-04-09T09:03:34,42.805,6.029,CST-1368DR,4328,4720,11580,01.196,551
2023-04-09T09:06:36,42.805,6.029,CST-1368DR,4328,4717,11573,01.198,552
2023-04-09T09:09:37,42.805,6.029,CST-1368DR,4327,4719,11580,01.196,552
2023-04-09T09:12:39,42.805,6.029,CST-1368DR,4327,4720,11584,01.195,551
2023-04-09T09:15:40,42.805,6.029,CST-1368DR,4327,4722,11588,01.193,551
2023-04-09T09:18:42,42.805,6.029,CST-1368DR,4327,4716,11573,01.198,551
2023-04-09T09:21:44,42.805,6.029,CST-1368DR,4327,4716,11575,01.198,551
2023-04-09T09:24:45,42.805,6.029,CST-1368DR,4327,4720,11583,01.195,551
2023-04-09T09:27:47,42.805,6.029,CST-1368DR,4327,4716,11573,01.198,551
2023-04-09T09:30:48,42.805,6.029,CST-1368DR,4327,4716,11574,01.198,551
2023-04-09T09:33:50,42.805,6.029,CST-1368DR,4327,4711,11563,01.202,551
2023-04-09T09:36:51,42.805,6.029,CST-1368DR,4327,4720,11583,01.195,551
2023-04-09T09:39:53,42.805,6.029,CST-1368DR,4327,4717,11577,01.197,551
2023-04-09T09:42:55,42.805,6.029,CST-1368DR,4327,4721,11586,01.194,551
2023-04-09T09:45:56,42.805,6.029,CST-1368DR,4327,4715,11571,01.199,551
2023-04-09T09:48:58,42.805,6.029,CST-1368DR,4327,4714,11569,01.200,551
2023-04-09T09:51:59,42.805,6.029,CST-1368DR,4327,4720,11583,01.195,551
2023-04-09T09:55:01,42.805,6.029,CST-1368DR,4327,4716,11574,01.198,551
2023-04-09T09:58:02,42.805,6.029,CST-1368DR,4327,4717,11577,01.197,551
2023-04-09T10:01:04,42.805,6.029,CST-1368DR,4327,4719,11582,01.195,551
2023-04-09T10:04:06,42.805,6.029,CST-1368DR,4327,4717,11577,01.197,551
2023-04-09T10:07:07,42.805,6.029,CST-1368DR,4327,4720,11583,01.195,551
2023-04-09T10:10:09,42.805,6.029,CST-1368DR,4327,4718,11579,01.196,551
2023-04-09T10:13:10,42.805,6.029,CST-1368DR,4327,4717,11577,01.197,551
2023-04-09T10:16:12,42.805,6.029,CST-1368DR,4327,4710,11558,01.204,551
2023-04-09T10:19:13,42.805,6.029,CST-1368DR,4327,4719,11580,01.196,551
2023-04-09T10:22:15,42.805,6.029,CST-1368DR,4327,4714,11568,01.200,551
2023-04-09T10:25:17,42.805,6.029,CST-1368DR,4327,4714,11569,01.200,551
2023-04-09T10:28:18,42.805,6.029,CST-1368DR,4327,4716,11574,01.198,551
2023-04-09T10:31:20,42.805,6.029,CST-1368DR,4327,4716,11575,01.198,551
2023-04-09T10:34:21,42.805,6.029,CST-1368DR,4327,4714,11569,01.200,552
2023-04-09T10:37:23,42.805,6.029,CST-1368DR,4327,4719,11581,01.196,551
2023-04-09T10:40:25,42.805,6.029,CST-1368DR,4327,4712,11565,01.201,551
2023-04-09T10:43:26,42.805,6.029,CST-1368DR,4327,4716,11574,01.198,551
2023-04-09T10:46:28,42.805,6.029,CST-1368DR,4327,4715,11572,01.199,551
2023-04-09T10:49:29,42.805,6.029,CST-1368DR,4327,4715,11571,01.199,551
2023-04-09T10:52:31,42.805,6.029,CST-1368DR,4328,4717,11575,01.198,551
2023-04-09T10:55:32,42.805,6.029,CST-1368DR,4327,4717,11575,01.198,551
2023-04-09T10:58:34,42.805,6.029,CST-1368DR,4327,4713,11567,01.201,551
2023-04-09T11:01:36,42.805,6.029,CST-1368DR,4327,4714,11569,01.200,551
2023-04-09T11:04:37,42.805,6.029,CST-1368DR,4327,4716,11573,01.198,551
2023-04-09T11:07:39,42.805,6.029,CST-1368DR,4327,4716,11574,01.198,551
2023-04-09T11:10:40,42.805,6.029,CST-1368DR,4327,4716,11573,01.198,551
2023-04-09T11:13:42,42.805,6.029,CST-1368DR,4327,4715,11572,01.199,552
2023-04-09T11:16:43,42.805,6.029,CST-1368DR,4327,4715,11572,01.199,551
2023-04-09T11:19:45,42.805,6.029,CST-1368DR,4327,4716,11573,01.198,552
2023-04-09T11:22:47,42.805,6.029,CST-1368DR,4327,4713,11566,01.201,551
2023-04-09T11:25:48,42.805,6.029,CST-1368DR,4327,4713,11567,01.201,551
2023-04-09T11:28:50,42.805,6.029,CST-1368DR,4327,4709,11558,01.204,551
2023-04-09T11:31:51,42.805,6.029,CST-1368DR,4327,4716,11573,01.198,551
2023-04-09T11:34:53,42.805,6.029,CST-1368DR,4327,4712,11564,01.202,551
2023-04-09T11:37:55,42.805,6.029,CST-1368DR,4327,4715,11571,01.199,551
2023-04-09T11:40:56,42.805,6.029,CST-1368DR,4327,4711,11563,01.202,551
2023-04-09T11:43:58,42.805,6.029,CST-1368DR,4327,4712,11564,01.202,551
2023-04-09T11:46:59,42.805,6.029,CST-1368DR,4327,4715,11571,01.199,552
2023-04-09T11:50:01,42.805,6.029,CST-1368DR,4327,4719,11582,01.195,551
2023-04-09T11:53:02,42.805,6.029,CST-1368DR,4327,4714,11569,01.200,551
2023-04-09T11:56:04,42.805,6.029,CST-1368DR,4327,4710,11560,01.203,551
2023-04-09T11:59:06,42.805,6.029,CST-1368DR,4327,4691,11513,01.219,551
2023-04-09T12:02:07,42.805,6.029,CST-1368DR,4327,4715,11571,01.199,551
2023-04-09T12:05:09,42.805,6.029,CST-1368DR,4327,4708,11555,01.205,551
2023-04-09T12:08:10,42.805,6.029,CST-1368DR,4327,4711,11561,01.203,551
2023-04-09T12:11:12,42.805,6.029,CST-1368DR,4327,4707,11553,01.205,551
2023-04-09T12:14:13,42.805,6.029,CST-1368DR,4327,4707,11552,01.206,551
2023-04-09T12:17:15,42.805,6.029,CST-1368DR,4327,4707,11552,01.206,551
2023-04-09T12:20:17,42.805,6.029,CST-1368DR,4327,4700,11536,01.211,551
2023-04-09T12:23:18,42.805,6.029,CST-1368DR,4327,4701,11536,01.211,551
2023-04-09T12:26:20,42.805,6.029,CST-1368DR,4327,4702,11539,01.210,551
2023-04-09T12:29:21,42.805,6.029,CST-1368DR,4327,4697,11527,01.214,552
2023-04-09T12:32:23,42.805,6.029,CST-1368DR,4327,4699,11532,01.213,551
2023-04-09T12:35:24,42.805,6.029,CST-1368DR,4327,4699,11532,01.213,551
2023-04-09T12:38:26,42.805,6.029,CST-1368DR,4327,4695,11523,01.216,552
2023-04-09T12:41:28,42.805,6.029,CST-1368DR,4327,4696,11524,01.215,551
2023-04-09T12:44:29,42.805,6.029,CST-1368DR,4327,4698,11530,01.213,551
2023-04-09T12:47:31,42.805,6.029,CST-1368DR,4327,4693,11517,01.218,551
2023-04-09T12:50:32,42.805,6.029,CST-1368DR,4327,4693,11517,01.218,551
2023-04-09T12:53:34,42.805,6.029,CST-1368DR,4327,4695,11523,01.216,551
2023-04-09T12:56:36,42.805,6.029,CST-1368DR,4327,4695,11522,01.216,551
2023-04-09T12:59:37,42.805,6.029,CST-1368DR,4327,4692,11514,01.219,551
2023-04-09T13:02:39,42.805,6.029,CST-1368DR,4327,4693,11518,01.218,551
2023-04-09T13:05:40,42.805,6.029,CST-1368DR,4327,4691,11513,01.219,551
2023-04-09T13:08:42,42.805,6.029,CST-1368DR,4327,4696,11525,01.215,551
2023-04-09T13:11:43,42.805,6.029,CST-1368DR,4327,4696,11524,01.215,552
2023-04-09T13:14:45,42.805,6.029,CST-1368DR,4327,4696,11525,01.215,551
2023-04-09T13:17:47,42.805,6.029,CST-1368DR,4327,4695,11522,01.216,551
2023-04-09T13:20:48,42.805,6.029,CST-1368DR,4327,4697,11526,01.215,551
2023-04-09T13:23:50,42.805,6.029,CST-1368DR,4327,4695,11523,01.216,551
2023-04-09T13:26:51,42.805,6.029,CST-1368DR,4327,4696,11525,01.215,551
2023-04-09T13:29:53,42.805,6.029,CST-1368DR,4327,4694,11519,01.217,551
2023-04-09T13:32:55,42.805,6.029,CST-1368DR,4327,4697,11526,01.215,552
2023-04-09T13:35:56,42.805,6.029,CST-1368DR,4327,4693,11517,01.218,551
2023-04-09T13:38:58,42.805,6.029,CST-1368DR,4327,4696,11525,01.215,551
2023-04-09T13:41:59,42.805,6.029,CST-1368DR,4327,4696,11526,01.215,551
2023-04-09T13:45:01,42.805,6.029,CST-1368DR,4327,4695,11523,01.216,551
2023-04-09T13:48:02,42.805,6.029,CST-1368DR,4327,4698,11529,01.214,551
2023-04-09T13:51:04,42.805,6.029,CST-1368DR,4327,4698,11529,01.214,551
2023-04-09T13:54:06,42.805,6.029,CST-1368DR,4327,4697,11527,01.214,551
2023-04-09T13:57:07,42.805,6.029,CST-1368DR,4327,4698,11530,01.213,551
2023-04-09T14:00:09,42.805,6.029,CST-1368DR,4327,4699,11533,01.212,551
2023-04-09T14:03:10,42.805,6.029,CST-1368DR,4327,4699,11533,01.212,551
2023-04-09T14:06:12,42.805,6.029,CST-1368DR,4327,4697,11528,01.214,551
2023-04-09T14:09:13,42.805,6.029,CST-1368DR,4327,4699,11533,01.212,551
2023-04-09T14:12:15,42.805,6.029,CST-1368DR,4327,4699,11533,01.212,551
2023-04-09T14:15:17,42.805,6.029,CST-1368DR,4327,4710,11558,01.204,551
2023-04-09T14:18:18,42.805,6.029,CST-1368DR,4327,4701,11538,01.211,551
2023-04-09T14:21:20,42.805,6.029,CST-1368DR,4327,4701,11536,01.211,551
2023-04-09T14:24:21,42.805,6.029,CST-1368DR,4327,4699,11531,01.213,551
2023-04-09T14:27:23,42.805,6.029,CST-1368DR,4327,4698,11529,01.214,551
2023-04-09T14:30:26,42.805,6.029,CST-1368DR,4327,4704,11544,01.209,551
2023-04-09T14:33:28,42.805,6.029,CST-1368DR,4327,4701,11537,01.211,551
2023-04-09T14:36:29,42.805,6.029,CST-1368DR,4327,4704,11544,01.209,551
2023-04-09T14:39:31,42.805,6.029,CST-1368DR,4327,4709,11556,01.204,551
2023-04-09T14:42:32,42.805,6.029,CST-1368DR,4327,4710,11559,01.203,551
2023-04-09T14:45:34,42.805,6.029,CST-1368DR,4327,4708,11555,01.205,551
2023-04-09T14:48:35,42.805,6.029,CST-1368DR,4327,4709,11557,01.204,551
2023-04-09T14:51:37,42.805,6.029,CST-1368DR,4327,4706,11549,01.207,551
2023-04-09T14:54:39,42.805,6.029,CST-1368DR,4327,4707,11552,01.206,551
2023-04-09T14:57:40,42.805,6.029,CST-1368DR,4327,4708,11554,01.205,551
2023-04-09T15:00:42,42.805,6.029,CST-1368DR,4327,4706,11550,01.206,551
2023-04-09T15:03:43,42.805,6.029,CST-1368DR,4327,4707,11551,01.206,551
2023-04-09T15:06:45,42.805,6.029,CST-1368DR,4327,4710,11558,01.204,551
2023-04-09T15:09:46,42.805,6.029,CST-1368DR,4327,4709,11556,01.204,551
2023-04-09T15:12:48,42.805,6.029,CST-1368DR,4327,4708,11555,01.205,551
2023-04-09T15:15:50,42.805,6.029,CST-1368DR,4327,4709,11558,01.204,552
2023-04-09T15:18:51,42.805,6.029,CST-1368DR,4327,4707,11553,01.205,551
2023-04-09T15:21:53,42.805,6.029,CST-1368DR,4327,4712,11564,01.202,551
2023-04-09T15:24:54,42.805,6.029,CST-1368DR,4327,4711,11563,01.202,551
2023-04-09T15:27:56,42.805,6.029,CST-1368DR,4327,4712,11565,01.201,551
2023-04-09T15:30:58,42.805,6.029,CST-1368DR,4327,4709,11558,01.204,551
2023-04-09T15:33:59,42.805,6.029,CST-1368DR,4327,4712,11565,01.201,551
2023-04-09T15:37:01,42.805,6.029,CST-1368DR,4327,4711,11563,01.202,551
2023-04-09T15:40:02,42.805,6.029,CST-1368DR,4327,4712,11563,01.202,551
2023-04-09T15:43:04,42.805,6.029,CST-1368DR,4327,4710,11559,01.203,551
2023-04-09T15:46:05,42.805,6.029,CST-1368DR,4327,4711,11562,01.202,551
2023-04-09T15:49:07,42.805,6.029,CST-1368DR,4327,4712,11563,01.202,551
2023-04-09T15:52:09,42.805,6.029,CST-1368DR,4327,4713,11566,01.201,551
2023-04-09T15:55:10,42.805,6.029,CST-1368DR,4327,4713,11566,01.201,551
2023-04-09T15:58:12,42.805,6.029,CST-1368DR,4327,4711,11563,01.202,551
2023-04-09T16:01:13,42.805,6.029,CST-1368DR,4327,4716,11573,01.198,551
2023-04-09T16:04:15,42.805,6.029,CST-1368DR,4327,4709,11558,01.204,551
2023-04-09T16:07:16,42.805,6.029,CST-1368DR,4327,4714,11569,01.200,551
2023-04-09T16:10:18,42.805,6.029,CST-1368DR,4327,4716,11574,01.198,551
2023-04-09T16:13:20,42.805,6.029,CST-1368DR,4327,4714,11569,01.200,551
2023-04-09T16:16:21,42.805,6.029,CST-1368DR,4327,4716,11573,01.198,551
2023-04-09T16:19:23,42.805,6.029,CST-1368DR,4327,4715,11571,01.199,551
2023-04-09T16:22:24,42.805,6.029,CST-1368DR,4327,4715,11571,01.199,551
2023-04-09T16:25:26,42.805,6.029,CST-1368DR,4327,4714,11568,01.200,551
2023-04-09T16:28:28,42.805,6.029,CST-1368DR,4327,4717,11576,01.197,551
2023-04-09T16:31:29,42.805,6.029,CST-1368DR,4327,4706,11549,01.207,551
2023-04-09T16:34:30,42.805,6.029,CST-1368DR,4327,4714,11569,01.200,551
2023-04-09T16:37:32,42.805,6.029,CST-1368DR,4327,4715,11571,01.199,551
2023-04-09T16:40:33,42.805,6.029,CST-1368DR,4327,4712,11564,01.202,551
2023-04-09T16:43:35,42.805,6.029,CST-1368DR,4327,4712,11564,01.202,551